Weather History for Crane Lake, MN

Change the Weather History Date:

Wednesday, October 3, 2012

  Actual Average Record
Temperature  
Mean Temperature 51 °F -  
Max Temperature 69 °F 55 °F 78 °F (2011)
Min Temperature 33 °F 36 °F 24 °F (2008)
Degree Days  
Heating Degree Days 14    
Growing Degree Days 1 (Base 50)    
Moisture  
Dew Point 40 °F    
Average Humidity 64    
Maximum Humidity 93    
Minimum Humidity 33    
Precipitation  
Precipitation 0.00 in - - ()
Sea Level Pressure  
Sea Level Pressure 29.90 in    
Wind  
Wind Speed 3 mph (NNW)    
Max Wind Speed 8 mph    
Max Gust Speed -    
Visibility 9 miles    
Events      
Averages and records for this station are not official NWS values.
T = Trace of Precipitation, MM = Missing Value Source: NWS Daily Summary

Daily Weather History Graph

Daily Weather History Graph

Search for Another Location

Airport:

Trip Planner

Search our weather history database for the weather conditions in past years. The results will help you decide how hot, cold, wet, or windy it might be!

Date:

Astronomy

Oct. 03, 2012 Rise Set
Actual Time 7:12 AM CDT 6:43 PM CDT
Civil Twilight 6:41 AM CDT 7:14 PM CDT
Nautical Twilight 6:05 AM CDT 7:51 PM CDT
Astronomical Twilight 5:28 AM CDT 8:27 PM CDT
Moon 8:16 PM CDT (10/3) 10:55 AM CDT (10/3)
Length of Visible Light 12h 33m
Length of Day
11h 31m
Waning Gibbous, 88% of the Moon is Illuminated
Oct 3
Waning Gibbous
Oct 8
Last Quarter
Oct 15
New
Oct 21
First Quarter
Oct 29
Full

Hourly Weather History & Observations

Time (CDT) Temp. Windchill Dew Point Humidity Pressure Visibility Wind Dir Wind Speed Gust Speed Precip Events Conditions
12:09 AM 51.8 °F - 39.2 °F 62% 29.82 in 10.0 mi South 4.6 mph - N/A   Clear
12:29 AM 50.0 °F - 39.2 °F 66% 29.82 in 10.0 mi South 4.6 mph - N/A   Clear
12:49 AM 50.0 °F - 39.2 °F 66% 29.82 in 10.0 mi South 5.8 mph - N/A   Clear
1:09 AM 48.2 °F - 39.2 °F 71% 29.82 in 10.0 mi South 3.5 mph - N/A   Clear
1:30 AM 48.2 °F - 39.2 °F 71% 29.82 in 10.0 mi South 3.5 mph - N/A   Clear
1:50 AM 48.2 °F - 39.2 °F 71% 29.82 in 10.0 mi South 5.8 mph - N/A   Clear
2:09 AM 48.2 °F - 39.2 °F 71% 29.82 in 10.0 mi South 5.8 mph - N/A   Clear
2:30 AM 48.2 °F - 37.4 °F 66% 29.82 in 10.0 mi South 4.6 mph - N/A   Clear
2:50 AM 46.4 °F 45.2 °F 37.4 °F 71% 29.82 in 10.0 mi South 3.5 mph - N/A   Clear
3:10 AM 46.4 °F 45.2 °F 37.4 °F 71% 29.82 in 10.0 mi South 3.5 mph - N/A   Clear
3:31 AM 46.4 °F 45.2 °F 37.4 °F 71% 29.82 in 10.0 mi South 3.5 mph - N/A   Clear
3:50 AM 44.6 °F - 35.6 °F 71% 29.83 in 10.0 mi Calm Calm - N/A   Clear
4:10 AM 39.2 °F - 32.0 °F 75% 29.84 in 10.0 mi Calm Calm - N/A   Clear
4:29 AM 37.4 °F - 33.8 °F 87% 29.84 in 10.0 mi Calm Calm - N/A   Clear
4:49 AM 37.4 °F - 32.0 °F 81% 29.84 in 10.0 mi Calm Calm - N/A   Clear
5:09 AM 35.6 °F - 30.2 °F 81% 29.84 in 10.0 mi Calm Calm - N/A   Clear
5:29 AM 35.6 °F - 30.2 °F 81% 29.85 in 10.0 mi Calm Calm - N/A   Clear
5:49 AM 33.8 °F - 30.2 °F 87% 29.86 in 10.0 mi Calm Calm - N/A   Clear
6:09 AM 33.8 °F - 30.2 °F 87% 29.87 in 10.0 mi Calm Calm - N/A   Clear
6:30 AM 33.8 °F - 30.2 °F 87% 29.87 in 10.0 mi Calm Calm - N/A   Clear
6:49 AM 33.8 °F - 28.4 °F 81% 29.87 in 10.0 mi Calm Calm - N/A   Clear
7:09 AM 33.8 °F - 28.4 °F 81% 29.88 in 10.0 mi Calm Calm - N/A   Clear
7:29 AM 33.8 °F - 30.2 °F 87% 29.89 in 10.0 mi Calm Calm - N/A   Clear
7:49 AM 33.8 °F - 30.2 °F 87% 29.90 in 10.0 mi Calm Calm - N/A   Clear
8:09 AM 33.8 °F - 30.2 °F 87% 29.90 in 10.0 mi Calm Calm - N/A   Clear
8:29 AM 35.6 °F - 33.8 °F 93% 29.90 in 10.0 mi Calm Calm - N/A   Clear
8:49 AM 39.2 °F - 35.6 °F 87% 29.90 in 10.0 mi Calm Calm - N/A   Clear
9:09 AM 44.6 °F - 42.8 °F 93% 29.91 in 10.0 mi Calm Calm - N/A   Clear
9:29 AM 51.8 °F - 46.4 °F 82% 29.91 in 10.0 mi Calm Calm - N/A   Clear
9:49 AM 55.4 °F - 46.4 °F 72% 29.91 in 7.0 mi Calm Calm - N/A   Clear
10:09 AM 57.2 °F - 48.2 °F 72% 29.91 in 10.0 mi Calm Calm - N/A   Clear
10:29 AM 60.8 °F - 44.6 °F 55% 29.91 in 7.0 mi Calm Calm - N/A   Clear
10:49 AM 60.8 °F - 48.2 °F 63% 29.91 in 7.0 mi Calm Calm - N/A   Clear
11:09 AM 62.6 °F - 46.4 °F 55% 29.91 in 5.0 mi Calm Calm - N/A   Haze
11:29 AM 64.4 °F - 46.4 °F 52% 29.92 in 4.0 mi Calm Calm - N/A   Haze
11:50 AM 64.4 °F - 46.4 °F 52% 29.91 in 3.0 mi Calm Calm - N/A   Haze
12:09 PM 66.2 °F - 46.4 °F 49% 29.91 in 3.0 mi Calm Calm - N/A   Haze
12:29 PM 66.2 °F - 50.0 °F 56% 29.91 in 3.0 mi Calm Calm - N/A   Haze
12:49 PM 66.2 °F - 46.4 °F 49% 29.91 in 2.5 mi Calm Calm - N/A   Haze
1:09 PM 66.2 °F - 46.4 °F 49% 29.90 in 2.5 mi Calm Calm - N/A   Haze
1:30 PM 68.0 °F - 44.6 °F 43% 29.90 in 2.5 mi NNE 4.6 mph - N/A   Haze
1:49 PM 68.0 °F - 44.6 °F 43% 29.89 in 2.5 mi NE 3.5 mph - N/A   Haze
2:09 PM 69.8 °F - 42.8 °F 38% 29.89 in 2.5 mi North 4.6 mph - N/A   Haze
2:29 PM 69.8 °F - 41.0 °F 35% 29.89 in 3.0 mi North 3.5 mph - N/A   Haze
2:49 PM 69.8 °F - 39.2 °F 33% 29.90 in 4.0 mi North 6.9 mph - N/A   Haze
3:10 PM 66.2 °F - 41.0 °F 40% 29.91 in 10.0 mi North 6.9 mph - N/A   Clear
3:29 PM 66.2 °F - 44.6 °F 46% 29.92 in 10.0 mi NNW 4.6 mph - N/A   Clear
3:50 PM 64.4 °F - 41.0 °F 42% 29.93 in 10.0 mi NNW 6.9 mph - N/A   Clear
4:10 PM 62.6 °F - 41.0 °F 45% 29.93 in 10.0 mi NNW 6.9 mph - N/A   Clear
4:29 PM 62.6 °F - 42.8 °F 48% 29.92 in 10.0 mi North 4.6 mph - N/A   Clear
4:49 PM 62.6 °F - 42.8 °F 48% 29.92 in 10.0 mi NNW 5.8 mph - N/A   Clear
5:09 PM 64.4 °F - 42.8 °F 45% 29.92 in 10.0 mi North 5.8 mph - N/A   Clear
5:29 PM 60.8 °F - 41.0 °F 48% 29.93 in 10.0 mi NNW 3.5 mph - N/A   Clear
5:49 PM 62.6 °F - 42.8 °F 48% 29.93 in 10.0 mi NNW 5.8 mph - N/A   Clear
6:09 PM 60.8 °F - 41.0 °F 48% 29.94 in 10.0 mi Calm Calm - N/A   Clear
6:30 PM 57.2 °F - 41.0 °F 55% 29.95 in 10.0 mi NNW 3.5 mph - N/A   Clear
6:49 PM 55.4 °F - 41.0 °F 58% 29.95 in 10.0 mi NNW 5.8 mph - N/A   Clear
7:09 PM 55.4 °F - 41.0 °F 58% 29.95 in 10.0 mi Calm Calm - N/A   Clear
7:29 PM 55.4 °F - 41.0 °F 58% 29.95 in 10.0 mi North 3.5 mph - N/A   Clear
7:49 PM 55.4 °F - 41.0 °F 58% 29.95 in 10.0 mi NNW 3.5 mph - N/A   Clear
8:09 PM 55.4 °F - 41.0 °F 58% 29.95 in 10.0 mi North 5.8 mph - N/A   Scattered Clouds
8:29 PM 55.4 °F - 42.8 °F 63% 29.95 in 10.0 mi Calm Calm - N/A   Scattered Clouds
8:49 PM 55.4 °F - 42.8 °F 63% 29.95 in 10.0 mi Calm Calm - N/A   Clear
9:09 PM 55.4 °F - 42.8 °F 63% 29.95 in 10.0 mi NNW 3.5 mph - N/A   Clear
9:29 PM 53.6 °F - 42.8 °F 67% 29.96 in 10.0 mi North 3.5 mph - N/A   Clear
10:09 PM 53.6 °F - 42.8 °F 67% 29.98 in 10.0 mi North 3.5 mph - N/A   Clear
10:29 PM 53.6 °F - 42.8 °F 67% 29.97 in 10.0 mi NNW 3.5 mph - N/A   Scattered Clouds
10:49 PM 53.6 °F - 42.8 °F 67% 29.98 in 10.0 mi North 5.8 mph - N/A   Mostly Cloudy
11:10 PM 53.6 °F - 42.8 °F 67% 29.97 in 10.0 mi North 6.9 mph - N/A   Overcast
11:29 PM 53.6 °F - 42.8 °F 67% 29.97 in 10.0 mi NNW 6.9 mph - N/A   Scattered Clouds
11:50 PM 53.6 °F - 42.8 °F 67% 29.97 in 10.0 mi North 8.1 mph - N/A   Clear